Location: Fort Worth, Tx
(32.7431°N, 97.3695°W)
Time: 00:20:31
(UTC-04:00)

Vanguard 2 - Pass Details

Date: 25 February 2024
Orbit: 552 x 2916 km, 32.9° (Epoch: 24 April)

Event Time Altitude Azimuth Distance (km) Brightness Sun altitude
Rises 20:36:38 0° 245° (WSW) 4,234 12.6 -16.2°
Reaches altitude 10° 20:39:02 10° 244° (WSW) 3,516 11.9 -16.7°
Maximum altitude 20:48:34 75° 160° (SSE) 2,058 9.5 -18.7°
Enters shadow 20:58:24 26° 82° (E) 3,998 10.5 -20.8°
